Tracking 30994 objects as of 8-Jul-2025
HD Live streaming from Space Station
objects crossing your sky now

DELTA 1 DEB

Track DELTA 1 DEB now!
10-day predictions


NORAD ID: 7036
Int'l Code: 1973-086AC
Perigee: 1,415.7 km
Apogee: 1,485.5 km
Inclination: 101.6 °
Period: 114.7 minutes
Semi major axis: 7821 km
RCS: 0.0934 m2 (small)
Launch date: November 6, 1973
Source: United States (US)
Launch site: AIR FORCE WESTERN TEST RANGE (AFWTR)

Note: This is SATELLITE DEBRIS
Your satellite tracking list
Your tracking list is empty




NASA's NSSDC Master Catalog

Two Line Element Set (TLE):
1 07036U 73086AC  25187.90695557  .00001781  00000-0  11186-1 0  9994
2 07036 101.5604 164.3151 0044610 151.3270 265.7428 12.55050361353812
Source of the keplerian elements: AFSPC